When you browse on this site, cookies collect data to enhance your experience and personalize the content and advertising you see.
Visit our Privacy Policy to learn more. By continuing to use the site, you agree to this use of cookies and data.
  • In Belgium
  • List of Countries
  • For 7 days
  • Water Temperature
  • Satellite Maps
  • Weather Map
  • Weather Widgets
  • user-avatar
    Login

    Hourly Weather Frankfurt am Mein

    Today, 21 July, Sunday

    Time Temperature Precipitation Wind Pressure Humidity
    00:00 +18°C° 0 mm 1 mps 722 mmHg 85%
    01:00 +16°C° 0 mm 0 mps 722 mmHg 88%
    02:00 +18°C° 0.1 mm 1 mps 722 mmHg 89%
    03:00 +16°C° 0.1 mm 1 mps 722 mmHg 90%
    04:00 +16°C° 0.1 mm 1 mps 722 mmHg 91%
    05:00 +16°C° 0 mm 1 mps 723 mmHg 88%
    06:00 +17°C° 0 mm 2 mps 723 mmHg 85%
    07:00 +18°C° 0 mm 2 mps 724 mmHg 82%
    08:00 +19°C° 0 mm 2 mps 725 mmHg 72%
    09:00 +21°C° 0 mm 3 mps 725 mmHg 62%
    10:00 +22°C° 0 mm 3 mps 726 mmHg 51%
    11:00 +24°C° 0 mm 3 mps 726 mmHg 47%
    12:00 +25°C° 0 mm 3 mps 726 mmHg 43%
    13:00 +26°C° 0 mm 3 mps 726 mmHg 39%
    14:00 +26°C° 0 mm 3 mps 726 mmHg 39%
    15:00 +26°C° 0 mm 3 mps 727 mmHg 39%
    16:00 +27°C° 0 mm 3 mps 727 mmHg 39%
    17:00 +26°C° 0 mm 3 mps 727 mmHg 45%
    18:00 +24°C° 0 mm 3 mps 727 mmHg 51%
    19:00 +23°C° 0 mm 2 mps 726 mmHg 57%
    20:00 +21°C° 0 mm 2 mps 727 mmHg 63%
    21:00 +20°C° 0 mm 1 mps 727 mmHg 68%
    22:00 +18°C° 0 mm 1 mps 727 mmHg 74%
    23:00 +16°C° 0 mm 1 mps 727 mmHg 75%

    Tomorrow, 22 July, Monday

    Time Temperature Precipitation Wind Pressure Humidity
    00:00 +16°C° 0 mm 1 mps 727 mmHg 76%
    01:00 +14°C° 0 mm 0 mps 727 mmHg 78%
    02:00 +14°C° 0 mm 0 mps 727 mmHg 78%
    03:00 +14°C° 0 mm 0 mps 727 mmHg 78%
    04:00 +14°C° 0 mm 0 mps 727 mmHg 78%
    05:00 +15°C° 0 mm 0 mps 727 mmHg 74%
    06:00 +16°C° 0 mm 0 mps 728 mmHg 71%
    07:00 +17°C° 0 mm 0 mps 728 mmHg 67%
    08:00 +19°C° 0 mm 0 mps 728 mmHg 61%
    09:00 +23°C° 0 mm 1 mps 728 mmHg 55%
    10:00 +24°C° 0 mm 1 mps 729 mmHg 49%
    11:00 +26°C° 0 mm 1 mps 729 mmHg 44%
    12:00 +27°C° 0 mm 1 mps 729 mmHg 40%
    13:00 +28°C° 0 mm 2 mps 729 mmHg 35%
    14:00 +28°C° 0 mm 2 mps 729 mmHg 35%
    15:00 +28°C° 0 mm 2 mps 728 mmHg 34%
    16:00 +28°C° 0 mm 2 mps 728 mmHg 34%
    17:00 +27°C° 0 mm 1 mps 728 mmHg 39%
    18:00 +26°C° 0 mm 1 mps 728 mmHg 44%
    19:00 +26°C° 0 mm 1 mps 728 mmHg 49%
    20:00 +24°C° 0 mm 1 mps 728 mmHg 54%
    21:00 +22°C° 0 mm 1 mps 728 mmHg 58%
    22:00 +20°C° 0 mm 1 mps 728 mmHg 63%
    23:00 +19°C° 0 mm 1 mps 728 mmHg 64%

    Day after tomorrow, 23 July, Tuesday

    Time Temperature Precipitation Wind Pressure Humidity
    00:00 +19°C° 0 mm 1 mps 728 mmHg 66%
    01:00 +18°C° 0 mm 1 mps 727 mmHg 68%
    02:00 +18°C° 0 mm 1 mps 727 mmHg 70%
    03:00 +16°C° 0 mm 1 mps 727 mmHg 73%
    04:00 +16°C° 0 mm 1 mps 727 mmHg 76%
    05:00 +18°C° 0 mm 1 mps 727 mmHg 72%
    06:00 +19°C° 0 mm 1 mps 727 mmHg 69%
    07:00 +21°C° 0 mm 1 mps 727 mmHg 65%
    08:00 +23°C° 0 mm 1 mps 727 mmHg 58%
    09:00 +25°C° 0 mm 1 mps 727 mmHg 51%
    10:00 +27°C° 0 mm 2 mps 728 mmHg 44%
    11:00 +28°C° 0 mm 2 mps 727 mmHg 41%
    12:00 +29°C° 0 mm 2 mps 727 mmHg 37%
    13:00 +30°C° 0 mm 2 mps 727 mmHg 34%
    14:00 +31°C° 0 mm 3 mps 726 mmHg 33%
    15:00 +31°C° 0 mm 3 mps 726 mmHg 32%
    16:00 +31°C° 0 mm 3 mps 726 mmHg 32%
    17:00 +30°C° 0 mm 2 mps 725 mmHg 37%
    18:00 +29°C° 0 mm 2 mps 725 mmHg 42%
    19:00 +28°C° 0 mm 2 mps 725 mmHg 48%
    20:00 +26°C° 0 mm 2 mps 725 mmHg 52%
    21:00 +24°C° 0 mm 1 mps 725 mmHg 57%
    22:00 +22°C° 0 mm 1 mps 725 mmHg 62%
    23:00 +22°C° 0 mm 1 mps 724 mmHg 65%

    24 July, Wednesday

    Time Temperature Precipitation Wind Pressure Humidity
    00:00 +21°C° 0 mm 1 mps 724 mmHg 69%
    01:00 +20°C° 0 mm 1 mps 724 mmHg 72%
    02:00 +20°C° 0 mm 1 mps 724 mmHg 74%
    03:00 +19°C° 0 mm 1 mps 724 mmHg 77%
    04:00 +19°C° 0 mm 1 mps 723 mmHg 79%
    05:00 +20°C° 0 mm 1 mps 723 mmHg 76%
    06:00 +21°C° 0 mm 1 mps 724 mmHg 72%
    07:00 +22°C° 0 mm 1 mps 724 mmHg 69%
    08:00 +24°C° 0 mm 2 mps 724 mmHg 62%
    09:00 +26°C° 0 mm 2 mps 724 mmHg 56%
    10:00 +28°C° 0 mm 3 mps 724 mmHg 49%
    11:00 +30°C° 0 mm 3 mps 724 mmHg 45%
    12:00 +31°C° 0 mm 3 mps 724 mmHg 40%
    13:00 +33°C° 0 mm 3 mps 724 mmHg 36%
    14:00 +34°C° 0 mm 3 mps 724 mmHg 35%
    15:00 +34°C° 0 mm 3 mps 723 mmHg 34%
    16:00 +35°C° 0 mm 3 mps 723 mmHg 32%
    17:00 +32°C° 0 mm 2 mps 723 mmHg 37%
    18:00 +31°C° 0 mm 2 mps 723 mmHg 42%
    19:00 +30°C° 0 mm 2 mps 722 mmHg 48%
    20:00 +28°C° 0 mm 1 mps 722 mmHg 52%
    21:00 +26°C° 0 mm 1 mps 723 mmHg 57%
    22:00 +24°C° 0 mm 1 mps 723 mmHg 61%
    23:00 +24°C° 0 mm 1 mps 722 mmHg 64%

    25 July, Thursday

    Time Temperature Precipitation Wind Pressure Humidity
    00:00 +23°C° 0 mm 1 mps 722 mmHg 67%
    01:00 +22°C° 0 mm 1 mps 722 mmHg 69%
    02:00 +22°C° 0 mm 1 mps 722 mmHg 72%
    03:00 +21°C° 0 mm 1 mps 722 mmHg 74%
    04:00 +21°C° 0 mm 1 mps 721 mmHg 77%
    05:00 +22°C° 0 mm 1 mps 722 mmHg 74%
    06:00 +23°C° 0 mm 1 mps 722 mmHg 72%
    07:00 +24°C° 0 mm 1 mps 722 mmHg 70%
    08:00 +26°C° 0 mm 2 mps 722 mmHg 63%
    09:00 +28°C° 0 mm 2 mps 722 mmHg 55%
    10:00 +30°C° 0 mm 3 mps 722 mmHg 48%
    11:00 +31°C° 0 mm 3 mps 722 mmHg 43%
    12:00 +33°C° 0 mm 3 mps 722 mmHg 39%
    13:00 +35°C° 0 mm 4 mps 721 mmHg 34%
    14:00 +35°C° 0 mm 3 mps 721 mmHg 34%
    15:00 +36°C° 0 mm 3 mps 721 mmHg 33%
    16:00 +36°C° 0 mm 3 mps 720 mmHg 32%
    17:00 +35°C° 0 mm 3 mps 720 mmHg 37%
    18:00 +33°C° 0 mm 3 mps 720 mmHg 42%
    19:00 +31°C° 0 mm 2 mps 719 mmHg 47%
    20:00 +30°C° 0 mm 2 mps 719 mmHg 52%
    21:00 +28°C° 0 mm 2 mps 719 mmHg 56%
    22:00 +27°C° 0 mm 2 mps 719 mmHg 61%
    23:00 +26°C° 0 mm 1 mps 719 mmHg 64%

    26 July, Friday

    Time Temperature Precipitation Wind Pressure Humidity
    00:00 +25°C° 0 mm 1 mps 719 mmHg 66%
    01:00 +25°C° 0 mm 1 mps 719 mmHg 69%
    02:00 +24°C° 0 mm 1 mps 719 mmHg 71%
    03:00 +24°C° 0 mm 1 mps 718 mmHg 74%
    04:00 +24°C° 0 mm 1 mps 718 mmHg 76%
    05:00 +24°C° 0 mm 2 mps 719 mmHg 74%
    06:00 +24°C° 0 mm 2 mps 719 mmHg 71%
    07:00 +24°C° 0 mm 3 mps 720 mmHg 69%
    08:00 +24°C° 0.2 mm 3 mps 720 mmHg 71%
    09:00 +23°C° 0.2 mm 4 mps 721 mmHg 73%
    10:00 +22°C° 0.2 mm 4 mps 721 mmHg 75%
    11:00 +24°C° 0.1 mm 3 mps 721 mmHg 69%
    12:00 +25°C° 0.1 mm 3 mps 721 mmHg 64%
    13:00 +26°C° 0.1 mm 2 mps 721 mmHg 59%
    14:00 +26°C° 0.1 mm 2 mps 721 mmHg 60%
    15:00 +25°C° 0.1 mm 3 mps 721 mmHg 61%
    16:00 +24°C° 0.1 mm 3 mps 721 mmHg 62%
    17:00 +21°C° 2 mm 3 mps 721 mmHg 72%
    18:00 +19°C° 2 mm 3 mps 721 mmHg 82%
    19:00 +17°C° 2 mm 3 mps 721 mmHg 91%
    20:00 +17°C° 1.5 mm 3 mps 721 mmHg 91%
    21:00 +17°C° 1.5 mm 3 mps 722 mmHg 92%
    22:00 +16°C° 1.5 mm 3 mps 722 mmHg 92%
    23:00 +16°C° 0.1 mm 2 mps 722 mmHg 90%
    Show more